Hourly Data Report for May 14, 2012

All times are specified in Local Standard Time (LST). Add 1 hour to adjust for Daylight Saving Time where and when it is observed.

HAMILTON A
ONTARIO

43°10'25.000" N
79°56'06.000" W
237.70 m
6153193
71263
YHM

Download Data

Hourly Data (May 2012)
Hourly Data Report for May 14, 2012
Temp Definition
°C
Dew Point Temp Definition
°C
Rel Hum Definition
%
Wind Dir Definition
10's deg

Wind Spd Definition
km/h
Visibility Definition
km
Stn Press Definition
kPa
Hmdx Definition


Wind Chill Definition


Weather Definition


TIME
00:00 Legend Double Dagger 12.3 7.8 74 25 9 10.0 99.13     LegendNANA
01:00 Legend Double Dagger 12.1 8.2 77 27 11 10.0 99.05     Mainly Clear
02:00 Legend Double Dagger 12.0 8.3 78 33 6 10.0 99.02     LegendNANA
03:00 Legend Double Dagger 10.5 8.1 85 34 5 10.0 99.04     LegendNANA
04:00 Legend Double Dagger 9.3 7.8 90   0 10.0 99.04     Mostly Cloudy
05:00 Legend Double Dagger 9.0 8.4 96   0 10.0 99.05     LegendNANA
06:00 Legend Double Dagger 8.9 8.3 96   0 8.1 99.09     Fog
07:00 Legend Double Dagger 11.7 10.0 89   0 9.7 99.11     Fog
08:00 Legend Double Dagger 15.3 9.3 67 4 6 10.0 99.13     LegendNANA
09:00 Legend Double Dagger 17.4 7.0 50 2 10 10.0 99.10     LegendNANA
10:00 Legend Double Dagger 18.6 5.6 42 2 9 10.0 99.07     Clear
11:00 Legend Double Dagger 19.8 7.3 44   0 10.0 99.05     LegendNANA
12:00 Legend Double Dagger 20.6 7.4 42 5 8 10.0 98.99     LegendNANA
13:00 Legend Double Dagger 21.1 8.2 43 30 4 10.0 98.93     Mainly Clear
14:00 Legend Double Dagger 22.4 9.0 42 22 14 10.0 98.87     LegendNANA
15:00 Legend Double Dagger 22.4 10.1 45 4 11 10.0 98.80     LegendNANA
16:00 Legend Double Dagger 22.9 12.1 50 10 15 10.0 98.76 25   Mostly Cloudy
17:00 Legend Double Dagger 21.9 11.7 52 10 15 10.0 98.75     LegendNANA
18:00 Legend Double Dagger 21.6 12.3 55 10 9 10.0 98.74     LegendNANA
19:00 Legend Double Dagger 20.1 9.8 51 20 15 10.0 98.77     Mostly Cloudy
20:00 Legend Double Dagger 17.2 9.7 61 20 10 10.0 98.79     LegendNANA
21:00 Legend Double Dagger 15.6 9.8 68 20 9 10.0 98.83     LegendNANA
22:00 Legend Double Dagger 13.6 9.7 77 25 10 10.0 98.84     Mainly Clear
23:00 Legend Double Dagger 14.0 8.9 71 23 8 10.0 98.80     LegendNANA

Notes on Data Quality.

Legend

  • E = Estimated
  • M = Missing
  • NA = Not Available
  • ‡ = Partner data that is not subject to review by the National Climate Archives
Date modified: